{"data":{"norad_id":63715,"epoch":"2026-09-20T14:07:10.665696Z","epoch_age_seconds":145000,"freshness":"FRESH","line1":"1 63715U 25087U   26263.58831789  .00010416  00000+0  31887-3 0  9993","line2":"2 63715  53.1611  33.2672 0001259 112.8963 247.2173 15.34409358 79050","mean_motion":15.34409358,"eccentricity":0.0001259,"inclination_deg":53.1611,"raan_deg":33.2672,"arg_perigee_deg":112.8963,"mean_anomaly_deg":247.2173,"bstar":0.00031887,"rev_number":7905,"period_min":93.84718572604,"perigee_km":461.81416811587,"apogee_km":463.53668468484,"semimajor_km":6840.8124264004,"source":"CELESTRAK","updated_at":"2026-09-21T09:00:35.090432Z"}}